Weather History for KMVN - May, 2013

Change the Weather History Date:

Thursday, May 30, 2013

  Actual Average Record
Temperature  
Mean Temperature 75 °F -  
Max Temperature 84 °F 74 °F 89 °F (2006)
Min Temperature 66 °F 56 °F 55 °F (2012)
Cooling Degree Days 10    
Growing Degree Days 25 (Base 50)    
Moisture  
Dew Point 63 °F    
Average Humidity 62    
Maximum Humidity 83    
Minimum Humidity 48    
Precipitation  
Precipitation 0.44 in - - ()
Sea Level Pressure  
Sea Level Pressure 29.96 in    
Wind  
Wind Speed 10 mph (SSE)    
Max Wind Speed 28 mph    
Max Gust Speed 36 mph    
Visibility 10 miles    
Events Thunderstorm    
Averages and records for this station are not official NWS values.
T = Trace of Precipitation, MM = Missing Value Source: NWS Daily Summary

Daily Weather History Graph

Daily Weather History Graph

Search for Another Location

Airport or City:

Trip Planner

Search our weather history database for the weather conditions in past years. The results will help you decide how hot, cold, wet, or windy it might be!

Date:

Astronomy

May. 30, 2013 Rise Set
Actual Time 5:34 AM CDT 8:12 PM CDT
Civil Twilight 5:03 AM CDT 8:43 PM CDT
Nautical Twilight 4:24 AM CDT 9:21 PM CDT
Astronomical Twilight 3:41 AM CDT 10:04 PM CDT
Moon 12:15 AM CDT (5/30) 11:39 AM CDT (5/30)
Length of Visible Light 15h 39m
Length of Day
14h 37m
Waning Gibbous, 62% of the Moon is Illuminated
May 30
Waning Gibbous
May 31
Last Quarter
Jun 8
New
Jun 16
First Quarter
Jun 23
Full

Hourly Weather History & Observations

Time (CDT) Temp. Heat Index Dew Point Humidity Pressure Visibility Wind Dir Wind Speed Gust Speed Precip Events Conditions
12:15 AM 75.2 °F - 60.8 °F 61% 29.98 in 10.0 mi SE 4.6 mph - N/A   Clear
12:35 AM 73.4 °F - 60.8 °F 65% 29.98 in 10.0 mi SE 5.8 mph - N/A   Clear
1:15 AM 73.4 °F - 62.6 °F 69% 29.97 in 10.0 mi SE 6.9 mph - N/A   Clear
1:35 AM 73.4 °F - 60.8 °F 65% 29.97 in 10.0 mi SE 5.8 mph - N/A   Clear
1:55 AM 73.4 °F - 62.6 °F 69% 29.97 in 10.0 mi SE 6.9 mph - N/A   Partly Cloudy
2:15 AM 73.4 °F - 62.6 °F 69% 29.96 in 10.0 mi SSE 5.8 mph - N/A   Mostly Cloudy
2:35 AM 73.4 °F - 62.6 °F 69% 29.96 in 10.0 mi SSE 6.9 mph - N/A   Partly Cloudy
2:55 AM 73.4 °F - 62.6 °F 69% 29.96 in 10.0 mi SSE 6.9 mph - N/A   Partly Cloudy
3:15 AM 75.2 °F - 62.6 °F 65% 29.96 in 10.0 mi South 9.2 mph - N/A   Partly Cloudy
3:35 AM 75.2 °F - 62.6 °F 65% 29.96 in 10.0 mi SSE 10.4 mph - N/A   Scattered Clouds
3:55 AM 75.2 °F - 62.6 °F 65% 29.96 in 10.0 mi SSE 8.1 mph - N/A   Partly Cloudy
4:15 AM 75.2 °F - 62.6 °F 65% 29.96 in 10.0 mi South 8.1 mph - N/A   Partly Cloudy
4:35 AM 75.2 °F - 62.6 °F 65% 29.97 in 10.0 mi South 6.9 mph - N/A   Mostly Cloudy
4:55 AM 75.2 °F - 62.6 °F 65% 29.97 in 10.0 mi SSE 6.9 mph - N/A   Overcast
5:15 AM 73.4 °F - 62.6 °F 69% 29.98 in 10.0 mi SSE 6.9 mph - N/A   Mostly Cloudy
5:35 AM 73.4 °F - 62.6 °F 69% 29.98 in 10.0 mi SSE 8.1 mph - N/A   Partly Cloudy
5:55 AM 73.4 °F - 62.6 °F 69% 29.99 in 10.0 mi South 9.2 mph - N/A   Clear
6:15 AM 75.2 °F - 62.6 °F 65% 29.99 in 10.0 mi South 9.2 mph - N/A   Clear
6:35 AM 75.2 °F - 62.6 °F 65% 29.99 in 3.0 mi South 10.4 mph - N/A   Partly Cloudy
6:55 AM 75.2 °F - 62.6 °F 65% 29.99 in 10.0 mi SSE 9.2 mph - N/A   Mostly Cloudy
7:15 AM 75.2 °F - 62.6 °F 65% 29.99 in 10.0 mi SSE 8.1 mph - N/A   Mostly Cloudy
7:35 AM 75.2 °F - 62.6 °F 65% 29.99 in 10.0 mi SSE 8.1 mph - N/A   Mostly Cloudy
7:55 AM 77.0 °F - 64.4 °F 65% 30.00 in 10.0 mi SSE 11.5 mph 17.3 mph N/A   Overcast
8:15 AM 77.0 °F - 64.4 °F 65% 30.00 in 10.0 mi South 12.7 mph 16.1 mph N/A   Overcast
8:35 AM 77.0 °F - 64.4 °F 65% 30.00 in 10.0 mi South 13.8 mph 20.7 mph N/A   Overcast
8:55 AM 78.8 °F - 64.4 °F 61% 30.00 in 10.0 mi SSE 15.0 mph 21.9 mph N/A   Overcast
9:15 AM 78.8 °F - 64.4 °F 61% 29.99 in 10.0 mi SSE 12.7 mph 17.3 mph N/A   Overcast
9:35 AM 78.8 °F - 62.6 °F 57% 30.00 in 10.0 mi South 15.0 mph 21.9 mph N/A   Overcast
9:55 AM 80.6 °F 82.3 °F 64.4 °F 58% 29.99 in 10.0 mi SSE 17.3 mph 24.2 mph N/A   Overcast
10:15 AM 78.8 °F - 64.4 °F 61% 29.99 in 10.0 mi South 13.8 mph 20.7 mph N/A   Overcast
10:35 AM 80.6 °F 82.3 °F 64.4 °F 58% 29.98 in 10.0 mi South 18.4 mph - N/A   Overcast
10:55 AM 80.6 °F 82.3 °F 64.4 °F 58% 29.99 in 10.0 mi South 11.5 mph 20.7 mph N/A   Overcast
11:15 AM 80.6 °F 81.8 °F 62.6 °F 54% 29.99 in 10.0 mi South 18.4 mph 24.2 mph N/A   Overcast
11:35 AM 82.4 °F 83.9 °F 64.4 °F 54% 29.98 in 10.0 mi South 19.6 mph 28.8 mph N/A   Overcast
11:55 AM 82.4 °F 83.9 °F 64.4 °F 54% 29.98 in 10.0 mi South 20.7 mph 28.8 mph N/A   Mostly Cloudy
12:15 PM 82.4 °F 83.4 °F 62.6 °F 51% 29.98 in 10.0 mi South 21.9 mph 25.3 mph N/A   Mostly Cloudy
12:35 PM 82.4 °F 83.9 °F 64.4 °F 54% 29.97 in 10.0 mi South 18.4 mph 27.6 mph N/A   Mostly Cloudy
12:55 PM 82.4 °F 83.4 °F 62.6 °F 51% 29.98 in 10.0 mi South 27.6 mph 35.7 mph N/A   Mostly Cloudy
1:15 PM 82.4 °F 83.9 °F 64.4 °F 54% 29.98 in 10.0 mi South 17.3 mph 24.2 mph N/A   Overcast
1:55 PM 84.2 °F 85.6 °F 64.4 °F 51% 29.97 in 10.0 mi South 17.3 mph 24.2 mph N/A   Mostly Cloudy
2:15 PM 84.2 °F 85.6 °F 64.4 °F 51% 29.96 in 10.0 mi South 15.0 mph 29.9 mph N/A   Mostly Cloudy
2:35 PM 84.2 °F 85.0 °F 62.6 °F 48% 29.95 in 10.0 mi South 16.1 mph 19.6 mph N/A   Mostly Cloudy
2:55 PM 84.2 °F 85.6 °F 64.4 °F 51% 29.95 in 10.0 mi South 17.3 mph 25.3 mph N/A   Mostly Cloudy
3:15 PM 82.4 °F 83.4 °F 62.6 °F 51% 29.95 in 10.0 mi South 10.4 mph 20.7 mph N/A   Mostly Cloudy
3:35 PM 82.4 °F 83.4 °F 62.6 °F 51% 29.94 in 10.0 mi South 13.8 mph 21.9 mph N/A Thunderstorm Thunderstorm
3:55 PM 80.6 °F 81.8 °F 62.6 °F 54% 29.94 in 10.0 mi South 10.4 mph - N/A Thunderstorm Overcast
4:15 PM 78.8 °F - 62.6 °F 57% 29.93 in 10.0 mi SW 9.2 mph 18.4 mph N/A   Mostly Cloudy
4:35 PM 80.6 °F 82.3 °F 64.4 °F 58% 29.91 in 10.0 mi South 6.9 mph - N/A   Clear
4:55 PM 80.6 °F 81.8 °F 62.6 °F 54% 29.90 in 10.0 mi South 11.5 mph - N/A   Clear
5:15 PM 80.6 °F 81.8 °F 62.6 °F 54% 29.89 in 10.0 mi South 12.7 mph 17.3 mph N/A   Clear
5:35 PM 84.2 °F 85.6 °F 64.4 °F 51% 29.89 in 10.0 mi SSE 13.8 mph 18.4 mph N/A   Clear
5:55 PM 82.4 °F 83.4 °F 62.6 °F 51% 29.89 in 10.0 mi South 17.3 mph 28.8 mph N/A   Partly Cloudy
6:16 PM 80.6 °F 81.8 °F 62.6 °F 54% 29.89 in 10.0 mi South 16.1 mph 24.2 mph N/A   Clear
6:35 PM 80.6 °F 81.8 °F 62.6 °F 54% 29.89 in 10.0 mi SSE 10.4 mph 19.6 mph N/A   Clear
6:55 PM 78.8 °F - 64.4 °F 61% 29.90 in 10.0 mi SSE 13.8 mph 19.6 mph N/A   Clear
7:15 PM 78.8 °F - 64.4 °F 61% 29.91 in 10.0 mi South 11.5 mph - N/A   Clear
7:35 PM 78.8 °F - 62.6 °F 57% 29.92 in 10.0 mi South 9.2 mph - N/A   Clear
7:55 PM 78.8 °F - 62.6 °F 57% 29.92 in 10.0 mi South 8.1 mph - N/A   Mostly Cloudy
8:15 PM 78.8 °F - 62.6 °F 57% 29.92 in 10.0 mi SSE 8.1 mph - N/A   Scattered Clouds
8:35 PM 78.8 °F - 64.4 °F 61% 29.92 in 10.0 mi SSE 5.8 mph - N/A Thunderstorm Partly Cloudy
8:55 PM 77.0 °F - 64.4 °F 65% 29.93 in 10.0 mi South 9.2 mph - N/A Thunderstorm Mostly Cloudy
9:15 PM 68.0 °F - 60.8 °F 78% 29.99 in 5.0 mi WSW 16.1 mph 23.0 mph 0.31 in Thunderstorm Thunderstorm
9:35 PM 66.2 °F - 59.0 °F 78% 29.95 in 10.0 mi South 5.8 mph - 0.43 in Thunderstorm Mostly Cloudy
9:55 PM 66.2 °F - 60.8 °F 83% 29.96 in 10.0 mi ENE 6.9 mph - 0.44 in   Overcast
10:15 PM 66.2 °F - 60.8 °F 83% 29.95 in 10.0 mi NE 3.5 mph - N/A   Scattered Clouds
10:35 PM 66.2 °F - 60.8 °F 83% 29.95 in 10.0 mi East 4.6 mph - N/A   Mostly Cloudy
10:55 PM 68.0 °F - 60.8 °F 78% 29.95 in 10.0 mi SE 5.8 mph - N/A   Mostly Cloudy
11:15 PM 69.8 °F - 62.6 °F 78% 29.95 in 10.0 mi South 11.5 mph 17.3 mph N/A   Scattered Clouds
11:35 PM 69.8 °F - 62.6 °F 78% 29.95 in 10.0 mi South 11.5 mph 18.4 mph N/A   Mostly Cloudy
11:55 PM 69.8 °F - 60.8 °F 73% 29.95 in 10.0 mi South 12.7 mph 17.3 mph N/A   Mostly Cloudy